Location: Matera
(40.6670°N, 16.6000°E)
Time: 01:16:48
(UTC+01:00)

ISS - Pass Details

Date: 26 January 2019
Orbit: 403 x 411 km, 51.6° (Epoch: 20 February)

Event Time Altitude Azimuth Distance (km) Brightness Sun altitude
Rises 17:35:13 0° 241° (WSW) 2,320 2.3 -6.4°
Reaches altitude 10° 17:37:19 10° 245° (WSW) 1,465 0.8 -6.8°
Maximum altitude 17:40:34 59° 327° (NNW) 476 -3.4 -7.4°
Drops below altitude 10° 17:43:50 10° 47° (NE) 1,477 -1.5 -8.0°
Enters shadow 17:44:02 - 48° (NE) 1,558 -1.4 -8.0°
